{"data":{"norad_id":59495,"intl_designator":"2024-071M","name":"STARLINK-31719","alt_names":[],"object_type":"PAYLOAD","status":"ACTIVE","operator":null,"country":"US","launch_date":"2024-04-13","launch_site_code":"AFETR","launch_vehicle":null,"mission":null,"orbit_class":"UNKNOWN","rcs_meters":null,"size_class":null,"mass_kg":null,"dimensions":null,"purposes":["comms"],"wikipedia_slug":null,"has_3d_model":false,"image_url":null,"decayed_at":null,"tle_current":{"epoch":"2026-05-25T01:36:15.070176Z","epoch_age_seconds":76181,"freshness":"FRESH","line1":"1 59495U 24071M   26145.06684109  .00000592  00000+0  31031-4 0  9995","line2":"2 59495  43.0014 268.6600 0001502 290.1166  69.9524 15.27576740119883","mean_motion":15.2757674,"eccentricity":0.0001502,"inclination_deg":43.0014,"raan_deg":268.66,"arg_perigee_deg":290.1166,"mean_anomaly_deg":69.9524,"bstar":3.1031e-5,"rev_number":11988,"period_min":94.266949888226,"perigee_km":482.02830605197,"apogee_km":484.08940928761,"semimajor_km":6861.1958576698,"source":"CELESTRAK","updated_at":"2026-05-25T13:38:18.954832Z"}}}